Regional Weather Roundup
Issued by NWS

Home | Current Version | Previous Version | Text Only | Print | Product List | Glossary On
Versions: 1 2 3 4 5 6 7 8 9 10 11 12 13 14 15 16 17 18 19 20 21 22 23 24 25 26 27 28 29 30 31 32 33 34 35 36 37 38 39 40 41 42 43 44 45 46 47 48 49 50
474
ASUS43 KDMX 052103
RWRIA

WEATHER ROUNDUP FOR IOWA
NATIONAL WEATHER SERVICE DES MOINES IA
300 PM CST FRI FEB 05 2016

NOTE: "FAIR" INDICATES FEW OR NO CLOUDS BELOW 12,000 FEET WITH NO
SIGNIFICANT WEATHER AND/OR OBSTRUCTIONS TO VISIBILITY.

* - THESE STATIONS ARE NOT NWS STATIONS...THUS NOT UNDER NWS
QUALITY CONTROL.  THEY ALSO DO NOT REPORT WEATHER SUCH
AS PRECIPITATION OR FOG.

IAZ001>003-012>014-020>022-031>034-043>046-052200-
   NORTHWEST IOWA

CITY           SKY/WX    TMP DP  RH WIND       PRES   REMARKS
CARROLL *      CLOUDY    27  25  93 S15       30.24F FOG     WCI  15
CHEROKEE *     CLOUDY    28  25  89 S17       30.20S WCI  16
DENISON *      CLOUDY    27  25  93 S10       30.21F FOG     WCI  17
LE MARS *      CLOUDY    28  28 100 S14       30.19S WCI  17
ORANGE CITY *  CLOUDY    27  25  93 S15       30.17S FOG     WCI  15
SHELDON *      CLOUDY    27  25  93 S17       30.16S WCI  14
SIOUX CITY     CLOUDY    30  24  78 S13       30.21S WCI  20
SPENCER          N/A     27  22  81 S16       30.19S WCI  15
STORM LAKE *   SUNNY     27  27 100 S20G26    30.19F FOG     WCI  13
$$

IAZ055>058-069>071-079>083-090>094-052200-
   SOUTHWEST IOWA

CITY           SKY/WX    TMP DP  RH WIND       PRES   REMARKS
ATLANTIC *     CLOUDY    30  25  80 S12G18    30.25F HAZE    WCI  21
AUDUBON *      LGT SNOW  28  25  86 S10G16    30.25F WCI  19
CLARINDA *     MIX PCPN  32  25  74 S10       30.30F WCI  24
COUNCIL BLFS * MIX PCPN  28  28 100 S8        30.24F VSB 1   WCI  20
CRESTON *      CLOUDY    32  19  59 S8        30.28F WCI  25
HARLAN  *      LGT SNOW  28  27  93 S13       30.28R VSB 1   WCI  18
LAMONI         CLOUDY    32  23  69 SE6       30.29F WCI  26
RED OAK *      CLOUDY    30  28  93 S10G17    30.27F FOG     WCI  21
SHENANDOAH *   MIX PCPN  30  32 100 S12       30.28F WCI  21
$$

IAZ047>049-059>061-072>074-084-052200-
   CENTRAL IOWA

CITY           SKY/WX    TMP DP  RH WIND       PRES   REMARKS
AMES           CLOUDY    27  18  69 SE9       30.30F WCI  18
ANKENY *       CLOUDY    28  19  69 S7        30.32S WCI  21
BOONE *        CLOUDY    27  19  74 SE9       30.27F WCI  17
CHARITON *     CLOUDY    32  19  59 SE8       30.31F WCI  25
DES MOINES     CLOUDY    31  18  58 S10       30.31F WCI  22
GRINNELL*      CLOUDY    27  20  73 SE6       30.32F WCI  21
KNOXVILLE *    CLOUDY    30  18  59 S8        30.31F WCI  23
MARSHALLTOWN   CLOUDY    25  18  74 SE8       30.31F WCI  16
NEWTON *       CLOUDY    27  19  74 S9        30.31F WCI  17
PELLA *        MOSUNNY   29  20  66 S6        30.34S WCI  23
$$

IAZ004>006-015-016-023>025-035-036-052200-
   NORTH CENTRAL IOWA

CITY           SKY/WX    TMP DP  RH WIND       PRES   REMARKS
ALGONA *       CLOUDY    25  19  80 S17       30.23S WCI  11
CLARION *      CLOUDY    23  18  80 S13       30.27S WCI  11
ESTHERVILLE    CLOUDY    24  21  88 S18       30.19F FOG     WCI  10
FORT DODGE *   CLOUDY    25  16  68 S12       30.27S WCI  14
MASON CITY     CLOUDY    21  17  84 S14       30.27F WCI   8
FOREST CITY *  CLOUDY    23  18  80 S14       30.25S WCI  11
WEBSTER CITY * CLOUDY    25  19  80 S13       30.26F WCI  13
IOWA FALLS *   CLOUDY    27  19  74 S9        30.30F WCI  17
$$

IAZ007>011-017>019-026>030-037>042-050>054-066-052200-
   NORTHEAST IOWA

CITY           SKY/WX    TMP DP  RH WIND       PRES   REMARKS
CEDAR RAPIDS   PTSUNNY   28  20  71 S6        30.33F WCI  22
CHARLES CITY * CLOUDY    21  18  86 S8        30.30F WCI  12
CLINTON *      CLOUDY    31  22  69 W5        30.37F WCI  26
DECORAH *      CLOUDY    23  14  68 S6        30.30S WCI  16
DUBUQUE        CLOUDY    26  17  68 SW8       30.33F WCI  18
MONTICELLO *   CLOUDY    28  18  64 CALM      30.35S
OELWEIN *      MOSUNNY   21  16  79 S6        30.32F WCI  14
WATERLOO       CLOUDY    24  16  71 S6        30.32F WCI  17
$$

IAZ064-065-067-068-078-052200-
   EAST CENTRAL IOWA

CITY           SKY/WX    TMP DP  RH WIND       PRES   REMARKS
DAVENPORT      PTSUNNY   30  20  66 W6        30.36F WCI  24
IOWA CITY      CLOUDY    29  20  69 CALM      30.37F
MT. PLEASANT * CLOUDY    33  21  61 CALM      30.37F
MUSCATINE *    PTSUNNY   30  19  64 CALM      30.38F
QUAD CITIES    CLOUDY    32  19  58 CALM      30.36F
$$

IAZ062-063-075>077-085>089-095>099-052200-
   SOUTHEAST IOWA

CITY           SKY/WX    TMP DP  RH WIND       PRES   REMARKS
BURLINGTON     CLOUDY    31  21  66 CALM      30.37S
FAIRFIELD *    CLOUDY    28  16  59 CALM      30.35S
FORT MADISON * CLOUDY    30  21  69 CALM      30.37F
KEOKUK *       CLOUDY    32  21  64 CALM      30.36F
OSKALOOSA *    CLOUDY    28  21  74 S5        30.35S WCI  23
OTTUMWA        CLOUDY    29  18  63 S3        30.34F
WASHINGTON *   CLOUDY    28  21  74 S3        30.37F
$$

ABBREVIATIONS USED IN REMARKS
   TC - TEMPERATURES IN CELSIUS
  WCI - WIND CHILL INDEX
   HX - HEAT INDEX
  VSB - VISIBILITY
$$





USA.gov is the U.S. government's official web portal to all federal, state and local government web resources and services.